[[{"header":{"parameterUnit":"m.s-1","parameterCategory":1,"la1":30.2991,"la2":30.254,"lo1":-89.0895,"lo2":-89.0444,"dy":0.0017,"dx":0.0017,"nx":28,"ny":28,"refTime":"2025-01-22T03:00:00:Z","depth":0,"parameterNumber":2,"parameterNumberName":"U-component_of_WINDS"},"data":[0,0,0,0,0,0,0,0,0,0,0,0,0,0,0,0,0,0,0,0,0,0,0,0,0,0,0,0,0,0,0,0,0,0,0,0,0,0,0,0,0,0,0,0,0,0,0,0,0,0,0,0,0,0,0,0,0,0,0.9274,0.9274,0,0.9316,0.9316,0.9317,0.9325,0.9325,0.9325,0.9324,0.9366,0.9368,0.9369,0,0,0,0,0,0,0,0,0,0,0,0,0,0.9202,0.9203,0.9274,0.9274,0.9275,0.9316,0.9316,0.9317,0.9325,0.9325,0.9325,0.9324,0.9366,0.9367,0.9369,0,0,0,0,0,0,0,0,0,0,0,0,0,0.9237,0.9203,0.9274,0.9284,0.9285,0.9316,0.9316,0.9317,0.9325,0.9325,0.9325,0.9324,0.9365,0.9367,0.9369,0.9392,0,0,0.9376,0.9377,0,0,0,0,0,0,0,0,0.9235,0.924,0.9282,0.9283,0.9285,0.9315,0.9306,0.9342,0.9326,0.931,0.9324,0.9324,0.9349,0.9353,0.9362,0.9394,0.9395,0.9376,0.9377,0.9378,0.9379,0,0,0,0,0,0,0,0.9233,0.9238,0.929,0.9283,0.9284,0.9287,0.9291,0.9313,0.9332,0.9312,0.9312,0.9317,0.935,0.936,0.9363,0.9396,0.9376,0.9378,0.9379,0.938,0.945,0.945,0,0,0,0,0,0,0.9228,0.9236,0.9289,0.9292,0.9258,0.9288,0.9294,0.9306,0.9332,0.9335,0.9318,0.9317,0.9356,0.936,0.9364,0.9393,0.9378,0.938,0.9381,0.9449,0.945,0.9451,0,0,0,0,0,0,0.9227,0.9233,0.9287,0.9264,0.9271,0.929,0.9304,0.9307,0.9316,0.9336,0.934,0.9324,0.9356,0.9361,0.9385,0.9395,0.9381,0.9383,0.9449,0.945,0.945,0.945,0,0,0,0,0,0,0.9225,0.9232,0.9241,0.9264,0.9272,0.9308,0.9304,0.9308,0.932,0.932,0.9343,0.9346,0.9356,0.9382,0.9387,0.9397,0.9385,0.9448,0.9449,0.945,0.9449,0.9451,0.9452,0,0,0,0,0,0.9222,0.9239,0.9241,0.9248,0.9283,0.9308,0.9313,0.9324,0.9321,0.933,0.9343,0.9346,0.9393,0.9384,0.939,0.9401,0.9447,0.9449,0.945,0.9449,0.9451,0.9452,0,0,0,0,0,0,0.9215,0.9242,0.9245,0.927,0.9287,0.9309,0.9321,0.9325,0.9343,0.9343,0.9356,0.9361,0.9384,0.9395,0.9385,0.9425,0.942,0.9422,0.9417,0.9419,0.942,0.9417,0.9386,0,0,0,0,0,0.9217,0.9235,0.9257,0.9277,0.9285,0.9302,0.9313,0.932,0.9338,0.9345,0.936,0.9377,0.9396,0.9408,0.9426,0.9451,0.9457,0.9461,0.9463,0.9464,0.9466,0.9481,0.9484,0.9455,0.9455,0.9455,0,0,0.922,0.9237,0.9247,0.9276,0.929,0.9308,0.9307,0.9327,0.9341,0.9348,0.9372,0.9383,0.9403,0.9428,0.944,0.9438,0.9475,0.9466,0.9466,0.9468,0.9483,0.9485,0.9488,0.9456,0.9456,0.9456,0,0,0.9235,0.9249,0.9268,0.9282,0.9304,0.9315,0.9319,0.9342,0.935,0.9374,0.9381,0.9397,0.9429,0.9444,0.9455,0.9477,0.9481,0.9483,0.949,0.9505,0.9507,0.9509,0.9518,0.952,0.9485,0.9485,0.9485,0,0.9236,0.9265,0.9277,0.9296,0.9309,0.9317,0.9336,0.935,0.9376,0.9384,0.9382,0.9423,0.9437,0.9466,0.9472,0.948,0.9486,0.948,0.9506,0.9508,0.951,0.9518,0.9521,0.9485,0.9485,0.9485,0.9485,0,0.9265,0.9285,0.9297,0.9323,0.9337,0.9356,0.9372,0.9385,0.9391,0.9403,0.9428,0.9445,0.9467,0.9475,0.9481,0.9505,0.9503,0.9503,0.9498,0.9513,0.9521,0.9524,0.9485,0.9485,0.9485,0.9485,0,0,0.9277,0.931,0.9315,0.9327,0.9352,0.9367,0.9387,0.941,0.9421,0.9439,0.9456,0.9484,0.9484,0.9497,0.9505,0.9518,0.9535,0.9516,0.9517,0.952,0.9564,0.9564,0.9568,0.9538,0.9539,0.9539,0.9562,0,0.9295,0.9331,0.9344,0.9373,0.9392,0.9401,0.9418,0.9436,0.9447,0.9465,0.9477,0.9497,0.9496,0.9504,0.9517,0.953,0.9544,0.9529,0.9554,0.9555,0.9549,0.9572,0.9572,0.9593,0.9566,0.9566,0.9566,0,0.9322,0.9341,0.9373,0.9397,0.9405,0.9421,0.9443,0.946,0.948,0.9487,0.9503,0.951,0.9531,0.9526,0.9556,0.9545,0.9556,0.9565,0.9566,0.9569,0.9562,0.9576,0.96,0.9603,0.9571,0.9571,0.9571,0,0.9328,0.9362,0.9386,0.9396,0.9424,0.9435,0.9447,0.9467,0.948,0.95,0.9508,0.953,0.9542,0.9558,0.9571,0.9566,0.9601,0.9596,0.9608,0.9607,0.9615,0.9614,0.9641,0.9621,0.9621,0.9621,0.9621,0,0.9348,0.9367,0.9389,0.9404,0.9426,0.944,0.9462,0.9474,0.9492,0.9509,0.9518,0.9534,0.955,0.9569,0.9579,0.9603,0.9608,0.9615,0.9618,0.9615,0.9614,0.9622,0.9621,0.9622,0.9622,0.9622,0.9622,0,0.9358,0.9374,0.94,0.9425,0.9432,0.9447,0.9469,0.9483,0.9496,0.9518,0.9524,0.9543,0.9565,0.958,0.9608,0.9615,0.9641,0.9643,0.9635,0.9636,0.9648,0.9647,0.9681,0.9687,0.9663,0.9663,0.9663,0,0.937,0.9385,0.9412,0.9425,0.9437,0.9457,0.9471,0.9486,0.95,0.9525,0.9536,0.9559,0.9579,0.9614,0.963,0.9652,0.9655,0.9666,0.9658,0.9655,0.9656,0.9655,0.9657,0.9667,0.9667,0.9667,0.9668,0,0.9389,0.9397,0.9416,0.9439,0.9456,0.9474,0.9493,0.9503,0.9521,0.9536,0.9559,0.9574,0.9604,0.9627,0.965,0.9663,0.9669,0.967,0.9674,0.9671,0.9666,0.9669,0.9639,0.9669,0.9669,0.9669,0.9669,0.9669,0.9401,0.9416,0.9437,0.9459,0.9475,0.9492,0.9508,0.9523,0.9542,0.9568,0.9575,0.96,0.9621,0.9653,0.9666,0.9686,0.9685,0.969,0.9692,0.9693,0.9693,0.9662,0.969,0.969,0.969,0.969,0.969,0,0.9422,0.9436,0.9456,0.9483,0.95,0.9504,0.9526,0.954,0.9561,0.958,0.96,0.9627,0.9649,0.9668,0.9692,0.9704,0.9707,0.9709,0.9709,0.9712,0.9693,0.9687,0.9706,0.9706,0.9706,0.9706,0.9706,0.9706,0.9435,0.9459,0.9469,0.9502,0.9517,0.9541,0.9553,0.9569,0.9585,0.9615,0.9634,0.9646,0.9666,0.9691,0.9712,0.9717,0.9725,0.9727,0.9733,0.9715,0.9713,0.9711,0.9706,0.9729,0.9729,0.975,0.975,0.9751]},{"header":{"parameterUnit":"m.s-1","parameterCategory":1,"la1":30.2991,"la2":30.254,"lo1":-89.0895,"lo2":-89.0444,"dy":0.0017,"dx":0.0017,"nx":28,"ny":28,"refTime":"2025-01-22T03:00:00:Z","depth":0,"parameterNumber":3,"parameterNumberName":"V-component_of_WINDS"},"data":[0,0,0,0,0,0,0,0,0,0,0,0,0,0,0,0,0,0,0,0,0,0,0,0,0,0,0,0,0,0,0,0,0,0,0,0,0,0,0,0,0,0,0,0,0,0,0,0,0,0,0,0,0,0,0,0,0,0,-3.7219,-3.7219,0,-3.7223,-3.7223,-3.7224,-3.7187,-3.7186,-3.7185,-3.7184,-3.7187,-3.7188,-3.7189,0,0,0,0,0,0,0,0,0,0,0,0,0,-3.7178,-3.7179,-3.7219,-3.7219,-3.7219,-3.7223,-3.7223,-3.7224,-3.7187,-3.7186,-3.7184,-3.7183,-3.7187,-3.7188,-3.7189,0,0,0,0,0,0,0,0,0,0,0,0,0,-3.719,-3.7179,-3.7219,-3.7201,-3.7199,-3.7223,-3.7223,-3.7224,-3.7187,-3.7186,-3.7184,-3.7183,-3.7186,-3.7188,-3.7189,-3.723,0,0,-3.7194,-3.7195,0,0,0,0,0,0,0,0,-3.719,-3.7192,-3.7204,-3.7202,-3.7201,-3.7203,-3.721,-3.7226,-3.7187,-3.7192,-3.7184,-3.7182,-3.7194,-3.7194,-3.7199,-3.723,-3.723,-3.7194,-3.7195,-3.7196,-3.7197,0,0,0,0,0,0,0,-3.7189,-3.7192,-3.722,-3.7204,-3.7202,-3.7193,-3.7193,-3.7213,-3.7201,-3.7191,-3.7189,-3.719,-3.7192,-3.7197,-3.7198,-3.723,-3.7194,-3.7196,-3.7197,-3.7197,-3.7298,-3.73,0,0,0,0,0,0,-3.7191,-3.7191,-3.722,-3.7221,-3.7191,-3.7195,-3.7195,-3.7204,-3.7201,-3.7199,-3.7191,-3.7188,-3.7195,-3.7197,-3.7198,-3.7248,-3.7196,-3.7198,-3.7198,-3.7297,-3.7299,-3.73,0,0,0,0,0,0,-3.719,-3.7194,-3.722,-3.7205,-3.7208,-3.7197,-3.7207,-3.7205,-3.7209,-3.7201,-3.7198,-3.7198,-3.7194,-3.7196,-3.7223,-3.7247,-3.7198,-3.72,-3.7294,-3.7297,-3.73,-3.7345,0,0,0,0,0,0,-3.7189,-3.7193,-3.7209,-3.7206,-3.7209,-3.7245,-3.7209,-3.7206,-3.7212,-3.7208,-3.7207,-3.7205,-3.7193,-3.7221,-3.7225,-3.7248,-3.7201,-3.7292,-3.7296,-3.7299,-3.7341,-3.7349,-3.7355,0,0,0,0,0,-3.7187,-3.722,-3.7209,-3.7213,-3.7227,-3.7246,-3.7248,-3.7234,-3.7214,-3.723,-3.7225,-3.7205,-3.7244,-3.7224,-3.7228,-3.7252,-3.7291,-3.7295,-3.7298,-3.7338,-3.7348,-3.7355,0,0,0,0,0,0,-3.7225,-3.7219,-3.7207,-3.724,-3.7244,-3.724,-3.7259,-3.7244,-3.7253,-3.7248,-3.723,-3.723,-3.7261,-3.7259,-3.7237,-3.7293,-3.7264,-3.7269,-3.7293,-3.7302,-3.7308,-3.7308,-3.7202,0,0,0,0,0,-3.7237,-3.7253,-3.7247,-3.7277,-3.728,-3.7269,-3.7276,-3.7266,-3.7269,-3.727,-3.7266,-3.727,-3.7283,-3.7292,-3.7303,-3.7341,-3.7341,-3.736,-3.7367,-3.7373,-3.7377,-3.7399,-3.7408,-3.7313,-3.7313,-3.7313,0,0,-3.7262,-3.7261,-3.7272,-3.7284,-3.7286,-3.7303,-3.727,-3.7289,-3.7302,-3.7272,-3.7298,-3.7296,-3.7299,-3.7332,-3.7347,-3.7332,-3.7404,-3.7378,-3.7382,-3.7384,-3.7404,-3.7413,-3.7421,-3.7316,-3.7315,-3.7315,0,0,-3.7317,-3.7317,-3.7343,-3.7346,-3.735,-3.7343,-3.7349,-3.7348,-3.7346,-3.7372,-3.7351,-3.7366,-3.7388,-3.7392,-3.7396,-3.7456,-3.7439,-3.746,-3.7496,-3.7518,-3.7526,-3.7532,-3.7555,-3.7563,-3.7464,-3.7464,-3.7464,0,-3.7347,-3.7372,-3.7358,-3.7379,-3.7386,-3.7362,-3.7388,-3.7392,-3.7398,-3.7404,-3.7387,-3.7417,-3.7417,-3.7452,-3.7467,-3.7471,-3.7478,-3.746,-3.7526,-3.7532,-3.7538,-3.756,-3.7568,-3.7467,-3.7467,-3.7466,-3.7466,0,-3.7411,-3.7429,-3.7449,-3.7459,-3.7468,-3.7491,-3.7481,-3.7492,-3.7481,-3.7476,-3.7504,-3.7503,-3.7516,-3.7523,-3.7511,-3.7557,-3.7548,-3.7529,-3.7499,-3.755,-3.757,-3.7578,-3.7471,-3.747,-3.7469,-3.7468,0,0,-3.7488,-3.749,-3.7498,-3.7503,-3.7507,-3.752,-3.7544,-3.7557,-3.7567,-3.7573,-3.7593,-3.7614,-3.7598,-3.7603,-3.7592,-3.7611,-3.7661,-3.759,-3.759,-3.7604,-3.7713,-3.7728,-3.7737,-3.7649,-3.7651,-3.7652,-3.7713,0,-3.7542,-3.7583,-3.7572,-3.7613,-3.7631,-3.7609,-3.7629,-3.7634,-3.7631,-3.7645,-3.7641,-3.7657,-3.7633,-3.7637,-3.7654,-3.7651,-3.7682,-3.7646,-3.7668,-3.7669,-3.7669,-3.7747,-3.7763,-3.782,-3.772,-3.7722,-3.7723,0,-3.7611,-3.7622,-3.7665,-3.7668,-3.7675,-3.7694,-3.7706,-3.772,-3.7726,-3.7722,-3.773,-3.7716,-3.774,-3.7711,-3.7744,-3.772,-3.7728,-3.7728,-3.773,-3.7732,-3.77,-3.7753,-3.7838,-3.7847,-3.7734,-3.7733,-3.7733,0,-3.7665,-3.769,-3.772,-3.7725,-3.7728,-3.7743,-3.7745,-3.7749,-3.7758,-3.7769,-3.7775,-3.7788,-3.7795,-3.7806,-3.7796,-3.7775,-3.7832,-3.7801,-3.783,-3.7831,-3.7843,-3.7843,-3.7932,-3.7847,-3.7847,-3.7847,-3.7847,0,-3.7728,-3.7755,-3.7745,-3.7763,-3.7794,-3.7781,-3.7812,-3.7812,-3.7816,-3.7835,-3.7816,-3.7833,-3.7819,-3.7836,-3.7828,-3.7858,-3.7861,-3.7859,-3.7857,-3.7862,-3.7862,-3.7867,-3.7864,-3.7849,-3.7849,-3.7848,-3.7848,0,-3.7793,-3.7787,-3.7818,-3.782,-3.7822,-3.7844,-3.7846,-3.7864,-3.786,-3.7884,-3.7888,-3.7882,-3.7901,-3.7893,-3.7911,-3.7907,-3.7946,-3.7938,-3.7944,-3.7943,-3.7973,-3.7971,-3.807,-3.8083,-3.7989,-3.7989,-3.799,0,-3.7834,-3.7855,-3.786,-3.7872,-3.7876,-3.7894,-3.7904,-3.7893,-3.7905,-3.7914,-3.7931,-3.7948,-3.7962,-3.7993,-3.799,-3.8005,-3.7998,-3.8032,-3.8,-3.8005,-3.8001,-3.8,-3.8003,-3.8038,-3.8039,-3.804,-3.8041,0,-3.7907,-3.7904,-3.792,-3.7936,-3.7949,-3.796,-3.797,-3.798,-3.797,-3.7983,-3.8003,-3.8014,-3.8035,-3.8053,-3.8067,-3.8069,-3.8054,-3.8051,-3.8059,-3.8064,-3.8068,-3.8068,-3.7963,-3.8049,-3.8048,-3.8048,-3.8047,-3.8047,-3.7962,-3.7981,-3.7989,-3.8008,-3.8014,-3.8025,-3.8042,-3.8042,-3.8058,-3.8075,-3.8067,-3.8091,-3.8098,-3.8115,-3.812,-3.8138,-3.8125,-3.8136,-3.8139,-3.8142,-3.8147,-3.8065,-3.814,-3.814,-3.814,-3.814,-3.814,0,-3.8037,-3.8041,-3.8059,-3.8074,-3.809,-3.8075,-3.8086,-3.81,-3.8121,-3.8129,-3.8144,-3.8167,-3.8186,-3.8185,-3.8202,-3.8217,-3.8211,-3.8222,-3.8221,-3.8223,-3.8157,-3.8149,-3.8227,-3.8227,-3.8227,-3.8227,-3.8227,-3.8227,-3.8077,-3.8109,-3.8107,-3.8143,-3.8147,-3.8171,-3.8178,-3.8188,-3.8195,-3.8223,-3.8239,-3.8239,-3.8244,-3.8262,-3.8278,-3.8277,-3.8285,-3.8299,-3.8296,-3.8235,-3.8227,-3.8219,-3.8211,-3.8301,-3.8301,-3.8361,-3.8361,-3.8362]}]]